• In Latvia
  • List of Countries
  • For 7 days
  • Water Temperature
  • Satellite Maps
  • Weather Map
  • Weather Widgets
  • user-avatar
    Login

    Hourly Weather Wiktoria

    Today, 19 August, Saturday

    Time Temperature Precipitation Wind Pressure Humidity
    00:00 +2°C° 0 mm 3 mps 753 mmHg 93%
    01:00 +2°C° 0 mm 3 mps 753 mmHg 94%
    02:00 +2°C° 0 mm 3 mps 753 mmHg 94%
    03:00 +1°C° 0 mm 3 mps 754 mmHg 94%
    04:00 +1°C° 0 mm 3 mps 754 mmHg 95%
    05:00 +1°C° 0 mm 3 mps 754 mmHg 95%
    06:00 +1°C° 0 mm 3 mps 755 mmHg 95%
    07:00 +2°C° 0 mm 2 mps 755 mmHg 95%
    08:00 +3°C° 0 mm 3 mps 755 mmHg 89%
    09:00 +5°C° 0 mm 4 mps 756 mmHg 83%
    10:00 +7°C° 0 mm 4 mps 757 mmHg 76%
    11:00 +8°C° 0 mm 4 mps 757 mmHg 71%
    12:00 +10°C° 0 mm 4 mps 757 mmHg 66%
    13:00 +11°C° 0 mm 4 mps 756 mmHg 61%
    14:00 +11°C° 0 mm 4 mps 756 mmHg 62%
    15:00 +11°C° 0 mm 4 mps 756 mmHg 64%
    16:00 +11°C° 0 mm 4 mps 756 mmHg 65%
    17:00 +8°C° 0 mm 4 mps 757 mmHg 70%
    18:00 +7°C° 0 mm 3 mps 757 mmHg 75%
    19:00 +4°C° 0 mm 3 mps 757 mmHg 79%
    20:00 +4°C° 0 mm 3 mps 758 mmHg 82%
    21:00 +3°C° 0 mm 3 mps 758 mmHg 84%
    22:00 +3°C° 0 mm 2 mps 758 mmHg 87%
    23:00 +3°C° 0 mm 2 mps 758 mmHg 88%

    Tomorrow, 20 August, Sunday

    Time Temperature Precipitation Wind Pressure Humidity
    00:00 +2°C° 0 mm 2 mps 758 mmHg 90%
    01:00 +2°C° 0 mm 2 mps 759 mmHg 91%
    02:00 +2°C° 0 mm 2 mps 758 mmHg 92%
    03:00 +1°C° 0 mm 2 mps 758 mmHg 92%
    04:00 +1°C° 0 mm 2 mps 758 mmHg 93%
    05:00 +2°C° 0 mm 1 mps 758 mmHg 93%
    06:00 +1°C° 0 mm 1 mps 758 mmHg 93%
    07:00 +1°C° 0 mm 1 mps 758 mmHg 93%
    08:00 +4°C° 0 mm 1 mps 758 mmHg 85%
    09:00 +6°C° 0 mm 1 mps 758 mmHg 78%
    10:00 +9°C° 0 mm 1 mps 758 mmHg 71%
    11:00 +10°C° 0 mm 1 mps 757 mmHg 66%
    12:00 +11°C° 0 mm 1 mps 756 mmHg 62%
    13:00 +11°C° 0 mm 0 mps 756 mmHg 57%
    14:00 +12°C° 0 mm 1 mps 755 mmHg 58%
    15:00 +12°C° 0 mm 1 mps 754 mmHg 58%
    16:00 +12°C° 0 mm 1 mps 754 mmHg 59%
    17:00 +10°C° 0 mm 1 mps 754 mmHg 65%
    18:00 +8°C° 0 mm 1 mps 754 mmHg 72%
    19:00 +6°C° 0 mm 1 mps 754 mmHg 78%
    20:00 +6°C° 0 mm 1 mps 754 mmHg 79%
    21:00 +5°C° 0 mm 1 mps 754 mmHg 80%
    22:00 +4°C° 0 mm 2 mps 754 mmHg 81%
    23:00 +4°C° 0 mm 2 mps 753 mmHg 81%

    Day after tomorrow, 21 August, Monday

    Time Temperature Precipitation Wind Pressure Humidity
    00:00 +4°C° 0 mm 2 mps 753 mmHg 81%
    01:00 +4°C° 0 mm 2 mps 752 mmHg 80%
    02:00 +3°C° 0 mm 3 mps 752 mmHg 80%
    03:00 +4°C° 0 mm 3 mps 752 mmHg 80%
    04:00 +4°C° 0 mm 3 mps 751 mmHg 79%
    05:00 +3°C° 0.3 mm 3 mps 751 mmHg 83%
    06:00 +3°C° 0.3 mm 3 mps 751 mmHg 87%
    07:00 +3°C° 0.3 mm 4 mps 751 mmHg 91%
    08:00 +3°C° 0.5 mm 4 mps 751 mmHg 92%
    09:00 +4°C° 0.5 mm 4 mps 750 mmHg 92%
    10:00 +3°C° 0.5 mm 5 mps 750 mmHg 93%
    11:00 +5°C° 0.3 mm 5 mps 750 mmHg 92%
    12:00 +6°C° 0.3 mm 5 mps 749 mmHg 91%
    13:00 +7°C° 0.3 mm 5 mps 749 mmHg 89%
    14:00 +7°C° 0.1 mm 5 mps 748 mmHg 89%
    15:00 +7°C° 0.1 mm 5 mps 748 mmHg 89%
    16:00 +8°C° 0.1 mm 4 mps 748 mmHg 88%
    17:00 +7°C° 0.1 mm 4 mps 748 mmHg 90%
    18:00 +7°C° 0.1 mm 4 mps 748 mmHg 91%
    19:00 +6°C° 0.1 mm 4 mps 748 mmHg 93%
    20:00 +5°C° 0 mm 4 mps 749 mmHg 93%
    21:00 +5°C° 0 mm 3 mps 749 mmHg 93%
    22:00 +4°C° 0 mm 3 mps 749 mmHg 93%
    23:00 +4°C° 0 mm 3 mps 749 mmHg 93%

    22 August, Tuesday

    Time Temperature Precipitation Wind Pressure Humidity
    00:00 +5°C° 0 mm 2 mps 749 mmHg 92%
    01:00 +5°C° 0 mm 2 mps 749 mmHg 91%
    02:00 +4°C° 0 mm 2 mps 749 mmHg 91%
    03:00 +4°C° 0 mm 2 mps 749 mmHg 92%
    04:00 +3°C° 0 mm 2 mps 749 mmHg 92%
    05:00 +4°C° 0 mm 1 mps 749 mmHg 91%
    06:00 +4°C° 0 mm 1 mps 750 mmHg 91%
    07:00 +4°C° 0 mm 1 mps 750 mmHg 91%
    08:00 +6°C° 0 mm 1 mps 751 mmHg 85%
    09:00 +8°C° 0 mm 0 mps 751 mmHg 80%
    10:00 +10°C° 0 mm 0 mps 751 mmHg 75%
    11:00 +12°C° 0 mm 1 mps 751 mmHg 71%
    12:00 +14°C° 0 mm 1 mps 751 mmHg 68%
    13:00 +15°C° 0 mm 2 mps 750 mmHg 65%
    14:00 +15°C° 0 mm 2 mps 750 mmHg 67%
    15:00 +15°C° 0 mm 2 mps 750 mmHg 69%
    16:00 +15°C° 0 mm 2 mps 750 mmHg 72%
    17:00 +13°C° 0 mm 2 mps 751 mmHg 78%
    18:00 +10°C° 0 mm 2 mps 752 mmHg 85%
    19:00 +9°C° 0 mm 2 mps 752 mmHg 91%
    20:00 +8°C° 0 mm 2 mps 753 mmHg 92%
    21:00 +8°C° 0 mm 2 mps 753 mmHg 93%
    22:00 +7°C° 0 mm 2 mps 754 mmHg 94%
    23:00 +8°C° 0 mm 1 mps 753 mmHg 94%

    23 August, Wednesday

    Time Temperature Precipitation Wind Pressure Humidity
    00:00 +7°C° 0 mm 1 mps 753 mmHg 94%
    01:00 +7°C° 0 mm 1 mps 753 mmHg 95%
    02:00 +7°C° 0 mm 1 mps 753 mmHg 95%
    03:00 +6°C° 0 mm 1 mps 753 mmHg 95%
    04:00 +6°C° 0 mm 1 mps 753 mmHg 96%
    05:00 +6°C° 0 mm 1 mps 754 mmHg 96%
    06:00 +6°C° 0 mm 1 mps 754 mmHg 96%
    07:00 +6°C° 0 mm 1 mps 754 mmHg 97%
    08:00 +7°C° 0 mm 1 mps 754 mmHg 94%
    09:00 +9°C° 0 mm 1 mps 755 mmHg 92%
    10:00 +10°C° 0 mm 2 mps 755 mmHg 89%
    11:00 +10°C° 0 mm 2 mps 755 mmHg 88%
    12:00 +12°C° 0 mm 2 mps 754 mmHg 87%
    13:00 +12°C° 0 mm 2 mps 754 mmHg 86%
    14:00 +13°C° 0.1 mm 2 mps 754 mmHg 85%
    15:00 +13°C° 0.1 mm 2 mps 754 mmHg 84%
    16:00 +14°C° 0.1 mm 2 mps 754 mmHg 82%
    17:00 +12°C° 0.1 mm 2 mps 755 mmHg 85%
    18:00 +11°C° 0.1 mm 1 mps 755 mmHg 88%
    19:00 +9°C° 0.1 mm 1 mps 756 mmHg 91%
    20:00 +7°C° 0 mm 2 mps 756 mmHg 92%
    21:00 +7°C° 0 mm 2 mps 757 mmHg 92%
    22:00 +6°C° 0 mm 2 mps 757 mmHg 93%
    23:00 +5°C° 0 mm 2 mps 757 mmHg 93%

    24 August, Thursday

    Time Temperature Precipitation Wind Pressure Humidity
    00:00 +5°C° 0 mm 2 mps 757 mmHg 93%
    01:00 +4°C° 0 mm 2 mps 757 mmHg 94%
    02:00 +4°C° 0 mm 2 mps 758 mmHg 94%
    03:00 +3°C° 0 mm 2 mps 758 mmHg 94%
    04:00 +3°C° 0 mm 2 mps 758 mmHg 94%
    05:00 +3°C° 0 mm 2 mps 758 mmHg 94%
    06:00 +2°C° 0 mm 2 mps 758 mmHg 94%
    07:00 +2°C° 0 mm 2 mps 759 mmHg 94%
    08:00 +4°C° 0 mm 2 mps 759 mmHg 89%
    09:00 +7°C° 0 mm 2 mps 759 mmHg 84%
    10:00 +9°C° 0 mm 2 mps 759 mmHg 79%
    11:00 +10°C° 0 mm 2 mps 759 mmHg 72%
    12:00 +13°C° 0 mm 2 mps 758 mmHg 66%
    13:00 +14°C° 0 mm 2 mps 758 mmHg 59%
    14:00 +14°C° 0 mm 2 mps 757 mmHg 61%
    15:00 +14°C° 0 mm 2 mps 757 mmHg 63%
    16:00 +15°C° 0 mm 2 mps 757 mmHg 64%
    17:00 +13°C° 0 mm 2 mps 757 mmHg 71%
    18:00 +10°C° 0 mm 2 mps 758 mmHg 77%
    19:00 +8°C° 0 mm 2 mps 758 mmHg 83%
    20:00 +7°C° 0 mm 2 mps 759 mmHg 83%
    21:00 +6°C° 0 mm 2 mps 759 mmHg 84%
    22:00 +6°C° 0 mm 2 mps 759 mmHg 85%
    23:00 +5°C° 0 mm 2 mps 759 mmHg 85%
    Show more